Weather in Tregubovo

Russia / Novgorod Oblast     58°59′21″N   31°32′48″E
temp.,
°C
wind,
m/s
gust,
m/s
humid.,
%
clouds,
%
prec.,
mm/h
press.,
hPa
HPBL,
m
3 march, wed
wed300:00−1wnw411906 0.1 1018414
03:00−1wnw4109210 0.1 1018438
06:00−2w4119330 0.0 1016398
09:00−1w5119046 0.0 1016588
12:00+1w5108095 0.0 1014722
15:00+3w5127098 0.0 10121344
18:00+2w51283100 0.0 10081082
21:00+2w51397100 0.4 1005926
4 march, thu
thu400:00+2w51388100 0.4 10021130
03:00−1wnw4118594 0.6 1003767
06:00−3wnw410800 0.0 1003544
09:00−3nw38830 0.0 1003486
12:00−1nw35700 0.0 1003748
15:000nw356626 0.0 10031095
18:00−2nw4781100 0.2 1003746
21:00−4nnw3692100 0.8 1004501
5 march, fri
fri500:00−5nw4880100 0.1 1005762
03:00−6nw378797 0.1 1007609
06:00−7nw4782100 0.1 1007839
09:00−7nw3682100 0.1 1009652
12:00−6nw3575100 0.1 1010737
15:00−5nw3571100 0.1 1012887
18:00−6n3678100 0.1 1013802
21:00−9n277666 0.1 1016389
6 march, sat
sat600:00−9wnw128161 0.0 101780
03:00−9w249144 0.0 1017144
06:00−9w259344 0.0 1017248
09:00−8w268945 0.0 1017283
12:00−5wsw357117 0.0 1015682
15:00−3sw586253 0.0 10121309
18:00−4ssw61274100 0.0 10071225
21:00−3sw71692100 1.6 10011343
7 march, sun
sun700:00−2wsw71792100 1.3 9941304
03:00−1wsw61487100 1.9 9911007
06:00−7wnw71756100 3.5 9921684
09:00−8wsw5118467 3.6 9921284
12:00−6wnw71256100 0.2 9912049
15:00−7w51085100 0.6 9911093
18:00−6n6984100 1.4 9941021
21:00−9nnw4118864 1.4 998651